Theta_e
338 339 338 338 339 339 341 342 343 343 343 342 342 341 341 340 340 340 340 340 339 339 339 339 339 339 339 339 339 339 341 343 344 344 344 343 342 342 341 341 341 341 340 340 339 339 338 337 337 336 335 336 335 335 334 332 331 330 330 329 328 328 328 328 328 327 325 325 325 324 325 326 322 320 319 317 316 317 316 314 314 314 314 313 313
338 338 338 338 339 339 341 342 343 343 343 343 342 341 341 341 340 340 340 340 340 339 340 339 339 339 339 339 339 338 339 342 344 344 343 343 342 342 342 342 341 340 340 340 339 338 337 337 337 336 335 334 334 333 333 333 331 330 330 329 328 329 328 328 327 325 323 323 323 323 323 324 322 319 318 318 318 317 316 314 314 315 314 313 313
337 338 338 338 339 340 341 343 343 343 343 343 343 342 342 341 341 341 340 340 340 340 340 340 339 339 339 339 340 340 341 343 345 344 343 343 342 342 342 341 341 340 339 339 338 338 338 337 337 336 334 334 333 333 333 333 332 331 330 329 328 328 328 327 326 324 322 321 321 322 321 322 322 320 318 318 319 318 316 315 315 315 314 313 313
337 338 338 338 339 340 341 342 342 343 343 343 343 342 342 342 341 341 341 340 340 340 340 340 340 341 341 341 342 342 343 344 344 344 343 342 342 342 341 340 339 339 338 338 338 338 338 337 336 335 333 333 332 332 332 332 331 330 329 328 328 327 327 327 327 325 323 320 320 322 322 321 321 321 319 318 318 317 316 316 316 315 314 314 313
338 337 338 338 339 339 339 340 342 343 343 343 343 343 342 342 342 341 341 341 341 341 341 341 342 342 342 343 344 344 344 345 344 343 342 342 341 340 340 339 338 338 339 339 339 338 337 336 336 334 333 332 331 331 331 330 330 329 328 327 327 327 327 327 327 326 324 321 320 321 320 320 321 320 318 318 318 316 316 316 316 315 314 314 313
335 335 336 337 338 338 337 339 342 343 343 343 343 343 342 342 342 342 342 341 341 342 343 344 344 343 344 344 345 345 344 344 343 342 342 340 340 339 338 338 339 339 339 338 338 338 337 336 335 334 333 332 331 331 330 328 328 327 326 326 326 326 326 325 325 326 324 321 321 320 319 319 320 319 319 319 318 316 315 315 316 315 314 314 313
335 336 336 336 337 337 337 340 343 343 342 343 343 343 343 342 343 343 342 342 343 344 344 345 345 344 345 345 345 345 344 343 343 342 341 340 339 339 339 339 339 339 338 338 337 337 336 335 334 333 332 331 330 330 328 327 326 325 324 325 325 325 325 324 324 325 323 320 320 320 319 319 320 319 319 319 318 317 316 315 315 314 314 314 314
337 337 337 336 337 339 340 342 343 343 342 342 342 342 342 343 343 344 344 344 344 345 345 345 345 345 345 345 345 344 343 343 342 341 340 340 340 340 340 340 339 337 337 337 336 336 335 333 333 332 331 330 329 328 326 325 324 323 323 324 325 324 324 324 324 323 321 320 320 320 319 319 319 319 319 317 316 316 316 315 315 314 314 314 314
337 335 336 337 339 341 342 343 343 342 341 341 342 342 342 343 343 344 345 345 344 345 345 345 345 346 345 344 343 343 343 342 341 340 340 340 340 340 340 339 338 337 336 335 334 334 333 332 331 331 330 329 327 326 325 323 322 322 322 322 323 323 323 323 322 321 320 320 320 319 319 319 319 318 318 317 317 316 316 316 315 314 314 314 313
336 334 336 338 339 342 343 343 342 341 341 341 341 341 342 342 343 344 345 345 345 346 345 345 345 345 344 342 340 342 342 341 341 341 340 341 340 339 339 337 337 336 335 333 332 332 331 331 330 329 329 327 326 326 325 322 320 320 320 319 320 320 320 320 320 320 320 320 320 319 318 318 318 319 318 318 318 317 316 315 314 313 313 312 311
335 335 336 337 338 341 343 342 341 341 341 341 341 341 341 341 343 344 344 345 346 343 342 343 343 340 338 339 341 341 341 341 341 341 340 340 339 338 337 336 335 335 334 333 332 330 329 329 329 328 327 326 325 325 323 321 320 319 319 318 317 317 318 318 318 318 319 320 320 320 319 318 318 318 318 318 318 316 316 315 314 313 312 311 311
335 335 336 337 338 340 341 341 340 340 340 340 341 341 340 341 342 343 344 345 343 340 341 343 342 337 334 339 342 341 340 340 340 340 339 339 339 338 336 336 334 333 332 331 331 330 329 328 327 326 326 325 324 323 321 320 319 319 318 317 316 316 317 317 318 318 319 319 319 320 319 318 317 316 316 317 316 315 314 314 313 313 312 311 311
335 335 335 336 336 338 339 340 340 340 340 340 340 340 339 340 342 343 345 343 341 341 342 340 339 338 337 339 341 339 339 340 339 339 339 338 338 337 336 334 332 331 330 329 329 329 328 327 325 324 323 323 322 321 320 319 318 318 317 315 314 316 317 317 317 318 318 319 319 319 318 317 317 316 316 315 315 314 313 313 312 312 312 311 309
335 335 335 336 336 337 339 340 341 341 341 340 339 339 339 340 341 343 344 342 341 342 340 337 338 341 340 340 340 339 339 339 338 339 338 337 337 335 334 333 331 329 329 328 327 327 326 325 324 323 321 321 320 320 319 319 318 317 316 315 314 314 315 317 317 317 317 317 317 318 317 316 316 317 316 316 315 314 313 312 312 311 311 309 307
335 335 335 336 336 338 340 342 341 341 341 340 339 339 339 340 341 342 343 342 341 339 336 335 338 340 340 340 340 339 339 339 337 337 336 335 334 333 332 331 329 328 327 327 327 326 325 324 323 322 320 320 319 319 318 318 318 317 315 314 314 313 313 315 316 316 316 316 315 314 314 313 314 316 316 316 315 314 313 313 311 310 308 306 304
335 335 335 336 336 338 341 342 342 342 341 340 339 339 339 339 340 341 342 342 339 337 336 337 337 337 339 341 340 339 339 337 336 335 334 333 332 331 330 329 328 327 327 326 326 325 323 322 322 321 320 319 318 318 318 318 317 316 315 313 313 312 312 313 314 314 314 313 312 312 311 311 312 312 313 314 313 312 312 311 309 308 305 303 302
335 335 336 336 337 339 341 342 343 342 341 340 340 339 339 339 341 341 342 342 339 337 338 338 337 338 339 339 339 339 338 336 335 333 332 331 330 329 329 328 327 327 326 326 325 323 321 321 321 320 320 319 319 318 317 317 316 315 314 313 312 312 311 311 311 311 311 311 311 310 310 310 310 309 310 311 311 311 310 308 307 306 304 301 300
335 336 336 337 338 339 340 341 342 342 342 341 340 339 339 339 340 341 342 341 338 336 338 338 337 338 339 339 339 339 337 335 334 332 330 330 329 328 328 328 327 326 325 325 324 322 320 320 319 319 319 318 318 317 316 316 315 314 314 313 312 311 310 310 310 309 309 309 309 309 309 309 309 308 308 308 309 309 309 308 305 304 303 300 299
335 336 337 337 337 338 339 341 342 342 342 341 340 340 339 339 340 340 342 340 336 335 337 337 337 338 338 338 338 338 336 334 333 331 329 329 328 327 327 328 327 326 325 324 323 322 321 320 320 319 318 317 317 316 315 315 314 314 314 313 312 311 309 309 309 308 308 308 307 307 307 306 306 306 305 306 307 308 308 307 305 304 302 300 300
336 336 336 336 336 338 339 341 342 342 342 341 340 340 340 339 339 340 340 337 334 335 336 336 337 338 337 337 337 336 335 333 331 330 329 329 328 327 327 327 327 325 324 324 323 322 321 321 321 320 318 317 317 316 315 315 315 315 314 314 312 310 308 307 307 306 306 305 305 305 305 304 305 305 305 305 305 306 306 306 305 304 303 301 301
335 335 335 335 336 337 339 341 342 342 342 341 340 340 340 340 339 339 338 335 334 335 336 337 338 337 336 336 336 334 334 333 331 329 328 328 328 327 327 327 327 325 324 323 322 322 322 322 321 321 320 319 318 317 316 315 315 315 315 314 311 308 307 305 305 304 304 303 303 303 303 303 304 304 305 305 305 305 305 305 305 305 304 303 302
334 334 334 335 336 337 339 341 342 342 341 341 340 339 339 338 338 338 337 335 334 335 336 337 337 336 335 335 334 332 332 331 330 329 328 327 327 327 327 326 326 325 323 322 322 322 322 322 322 321 320 319 318 317 316 315 316 315 315 313 309 306 304 303 303 303 302 302 301 301 301 301 302 303 303 304 304 304 304 304 304 303 303 303 301
334 334 334 335 335 337 338 339 340 341 341 339 337 337 337 336 336 336 336 335 335 335 336 336 336 333 332 331 331 331 330 329 328 327 326 327 327 327 326 325 325 324 323 322 322 321 321 321 321 321 319 318 318 317 316 316 315 315 315 311 306 302 302 302 302 302 302 301 301 300 300 300 301 301 302 302 302 302 302 301 301 300 299 299 298
334 333 334 334 335 335 336 336 337 337 337 334 334 335 336 335 335 335 336 335 335 335 334 334 333 330 329 328 329 330 329 327 326 325 326 327 327 326 325 324 324 324 323 323 322 322 321 320 319 318 316 315 315 315 315 315 315 315 313 308 303 301 302 303 304 304 303 302 302 301 300 300 300 301 301 301 300 300 299 299 298 297 297 297 297
333 333 333 334 334 333 334 333 333 333 333 332 333 335 335 334 334 335 335 335 335 334 332 331 331 330 329 328 329 328 327 326 324 324 325 326 325 324 324 324 324 324 324 323 323 322 321 319 317 315 310 306 307 309 312 314 315 314 311 306 303 303 305 306 306 305 304 303 303 302 301 301 301 301 301 301 300 299 298 297 296 296 297 297 298
333 334 334 334 334 332 332 332 331 331 331 331 332 334 335 335 335 334 333 334 334 333 331 331 331 330 328 326 326 327 326 324 324 324 325 325 323 323 323 323 324 324 323 323 322 321 319 317 315 311 306 303 305 310 313 315 314 311 307 305 305 306 307 307 306 305 304 304 303 303 303 302 302 302 302 302 301 300 298 296 296 296 297 298 298
333 333 333 333 333 332 332 332 331 331 332 332 333 334 334 334 334 334 333 334 334 333 331 330 330 328 325 324 324 326 325 324 324 324 325 325 323 322 322 322 322 323 323 323 321 319 317 314 310 308 306 307 310 313 313 312 309 306 305 306 307 307 308 308 307 305 305 305 304 304 304 303 303 302 302 302 302 302 301 299 297 297 297 298 297
332 331 331 331 332 332 332 332 332 332 332 332 333 333 333 334 334 333 333 333 333 332 330 329 329 328 326 324 324 323 323 324 324 324 324 325 324 323 322 322 321 322 322 322 320 316 313 310 308 308 310 311 311 310 309 307 305 305 305 307 307 307 307 308 307 306 305 305 305 304 304 304 303 302 302 302 302 301 302 301 300 298 297 297 295
328 327 327 328 328 329 330 331 332 332 331 330 329 329 330 332 333 332 332 332 332 332 331 330 330 329 329 327 323 320 320 323 325 324 324 324 324 324 323 322 322 321 322 322 319 313 309 308 308 309 309 309 308 307 306 306 306 307 307 307 307 307 308 308 307 307 306 305 305 304 304 303 302 302 301 300 299 299 299 299 300 299 298 297 294
323 323 326 326 324 324 324 325 327 329 329 328 327 326 326 328 330 330 330 331 331 331 331 330 330 329 328 327 324 322 323 325 325 324 323 323 323 324 324 323 322 321 319 318 315 310 307 307 308 308 308 307 307 307 307 307 308 308 308 308 308 308 308 307 307 306 305 305 305 304 303 302 300 300 299 298 298 298 298 298 299 299 299 297 294
324 323 324 324 322 322 322 321 323 324 324 326 327 325 323 324 325 326 327 328 329 329 329 329 329 328 328 328 326 325 325 325 324 324 323 322 322 322 323 322 322 320 318 316 312 308 307 307 308 307 307 307 307 307 308 308 308 307 308 308 307 306 307 307 307 305 305 305 304 303 301 300 298 298 298 298 298 298 297 297 298 298 298 296 293
323 321 321 320 320 321 322 321 322 322 321 321 324 324 323 321 320 320 322 324 325 326 326 326 326 327 327 327 326 325 324 324 324 323 321 321 321 321 321 321 319 317 315 314 311 307 306 307 306 306 307 307 307 307 308 307 307 307 308 307 305 305 306 306 305 305 304 304 303 301 299 298 298 297 298 298 297 297 297 297 297 297 296 294 291
321 320 320 320 321 321 322 321 321 320 319 318 319 321 321 319 316 316 318 321 323 324 325 325 326 326 326 326 325 324 324 324 323 322 320 320 320 320 319 318 316 314 312 311 309 306 305 305 305 305 306 307 307 307 307 306 306 307 307 306 303 303 304 303 303 303 302 301 301 299 298 297 298 298 298 297 297 296 296 295 295 295 294 292 290
322 321 321 322 322 322 321 321 320 319 318 318 318 318 319 318 316 315 316 318 320 321 322 324 325 326 326 325 325 325 324 323 322 321 320 319 319 319 318 315 312 311 310 310 308 306 305 304 305 304 305 306 306 306 305 305 306 307 305 303 302 302 302 302 302 302 301 300 299 298 297 298 298 298 297 296 296 295 294 293 293 293 292 291 289
322 321 321 322 322 320 320 320 319 318 317 317 318 318 317 317 316 316 315 315 315 314 316 319 321 322 324 324 324 324 323 322 321 320 319 319 318 318 316 313 309 308 308 308 308 307 306 305 305 304 304 304 304 305 305 305 306 305 302 301 302 302 302 302 302 301 300 299 298 298 298 298 298 297 297 296 295 295 293 292 292 292 291 290 289
320 320 320 320 320 319 318 318 318 318 318 318 317 317 316 317 317 315 314 314 313 312 312 314 316 318 320 321 321 321 321 320 319 318 318 318 317 317 315 312 308 307 307 308 308 308 307 306 306 305 305 305 305 305 305 305 304 303 302 302 302 302 302 301 300 299 298 298 298 298 298 297 297 296 296 295 294 293 292 291 291 290 290 290 289
319 319 318 318 319 319 318 318 318 319 319 318 318 317 317 316 316 315 313 312 312 311 310 311 313 315 316 316 317 318 317 316 316 316 315 315 315 315 315 313 310 308 308 308 308 307 307 306 306 306 306 306 305 305 305 305 303 302 302 302 302 301 300 299 298 298 298 298 298 298 297 296 296 296 296 294 292 291 290 290 289 289 289 288 288
317 317 318 319 319 319 318 317 317 318 318 316 316 317 315 313 312 312 311 309 309 308 308 309 311 312 311 311 312 314 314 314 313 312 312 312 312 313 313 313 311 310 309 308 307 307 306 306 306 306 306 306 305 305 304 303 303 302 302 301 300 300 298 298 298 298 298 298 297 297 296 296 296 296 295 294 291 289 289 289 288 288 288 287 287
314 315 317 318 318 318 317 316 316 316 316 314 313 314 312 310 308 308 307 307 307 307 306 307 308 308 308 308 309 311 312 312 311 310 310 310 311 311 311 310 310 309 308 307 306 306 306 305 305 305 305 305 304 304 303 302 302 302 301 300 299 298 298 298 298 298 297 297 297 296 296 296 295 294 293 292 290 288 288 287 287 287 287 286 286
312 312 313 314 314 314 314 314 314 313 313 312 311 311 310 308 306 305 305 305 305 305 305 306 305 305 306 307 308 309 311 310 309 309 309 309 309 309 309 309 308 308 307 306 306 306 305 305 305 305 304 304 303 302 302 302 301 300 299 299 298 298 298 297 297 297 296 296 296 296 296 295 293 292 291 290 289 288 287 286 286 286 286 286 286
311 311 311 312 312 311 311 311 311 310 310 310 309 309 308 307 306 305 305 305 304 304 304 305 304 305 306 306 308 309 310 308 307 307 307 307 307 307 307 307 307 307 306 306 305 305 305 305 304 304 304 303 302 301 301 301 300 300 299 299 298 298 297 297 296 296 296 296 296 295 294 293 292 291 290 289 288 287 286 286 286 286 286 285 285
309 309 309 309 310 310 310 309 309 309 309 308 308 307 307 307 306 306 305 304 304 304 304 304 304 305 306 306 307 308 308 306 305 305 305 305 306 306 306 306 306 306 306 305 305 305 305 304 304 304 303 301 301 300 300 300 300 300 299 298 298 297 297 296 296 297 296 296 295 293 292 291 289 289 288 287 287 286 286 286 285 285 285 285 285
309 308 308 308 308 308 307 307 307 307 307 306 306 306 306 306 305 305 305 304 304 304 304 304 304 304 305 305 306 306 306 305 304 304 304 304 305 305 304 305 305 305 305 305 304 304 304 304 303 303 302 301 300 300 300 301 300 299 298 297 297 297 297 296 297 297 296 294 293 291 290 289 288 287 287 287 286 286 286 286 285 285 284 283 283
308 308 307 307 306 306 306 306 306 305 305 304 304 304 304 305 304 304 304 304 303 304 304 303 303 303 303 304 304 304 304 304 303 303 303 303 304 304 304 304 304 304 304 304 304 304 303 303 302 301 300 300 300 300 300 300 300 299 297 297 297 297 297 297 298 297 295 293 291 290 289 288 287 287 287 287 286 286 286 285 284 284 283 282 282
307 306 306 305 305 305 305 305 305 304 304 303 303 302 302 303 303 303 303 303 303 303 303 302 302 302 302 303 303 303 303 302 302 302 302 303 303 303 303 303 303 303 303 303 303 303 302 302 301 300 300 300 300 300 299 299 299 298 297 297 297 297 298 298 297 295 294 293 291 289 288 287 287 287 287 286 286 286 285 284 284 283 283 282 282
306 305 305 304 304 303 303 303 303 303 303 302 302 301 301 301 302 302 302 302 302 302 301 300 301 301 301 301 302 302 301 301 301 301 301 302 302 302 302 302 303 303 303 302 302 302 302 301 301 300 300 300 299 299 299 298 298 297 297 297 298 298 298 297 295 293 292 292 290 289 287 287 287 287 286 286 285 285 284 284 283 283 283 282 282
306 306 305 305 304 303 303 302 302 302 301 301 301 301 301 301 301 302 301 301 301 300 300 300 300 300 300 300 300 300 300 300 300 300 300 301 301 301 301 302 302 302 302 302 302 301 301 301 301 300 300 299 298 298 298 297 297 297 297 297 297 297 296 294 293 292 291 290 289 288 287 287 286 286 285 285 284 284 284 283 283 283 283 282 282
306 306 305 305 304 304 303 302 302 301 301 301 301 301 301 301 301 300 300 300 300 299 299 299 299 299 299 299 299 299 299 299 299 299 300 300 300 300 301 301 301 301 301 301 301 301 301 301 300 300 300 299 298 298 298 297 297 297 296 296 295 295 294 293 291 290 289 288 288 287 286 286 286 285 285 284 284 283 283 283 283 283 282 282 282
306 306 305 305 304 303 303 302 302 301 301 301 301 300 300 300 300 300 299 299 299 299 299 299 298 298 299 298 298 298 298 298 298 298 299 299 299 300 300 300 300 300 300 300 300 300 300 300 300 300 299 298 298 298 297 297 297 296 295 294 294 293 292 290 289 288 287 287 286 286 286 286 285 285 284 284 284 283 283 283 283 283 282 282 282
306 305 305 304 304 303 303 302 302 301 301 301 301 300 300 300 300 299 299 299 299 299 299 299 298 298 298 298 298 298 298 298 298 298 298 298 299 299 300 300 300 300 300 300 300 299 299 299 299 298 298 298 297 297 296 296 295 295 294 293 292 291 290 289 288 288 287 286 286 285 285 285 285 284 284 284 284 284 283 283 282 282 282 282 282
306 306 305 305 304 303 303 302 302 301 301 301 301 301 300 300 299 299 299 299 299 299 298 298 298 298 298 298 298 298 298 297 297 297 298 298 299 299 300 300 300 300 300 299 298 298 298 298 297 297 297 297 296 296 295 295 294 294 293 292 291 290 289 288 288 287 286 286 285 285 285 285 284 284 284 284 283 283 283 282 282 282 282 282 282
Wind_Speed
35 35 38 38 37 37 35 30 29 31 34 35 34 33 32 32 33 32 31 30 29 28 28 28 28 28 27 26 26 25 23 22 23 24 23 23 24 24 21 18 16 15 14 14 14 13 13 13 15 15 14 15 17 17 17 15 13 14 15 16 18 18 16 12 7 6 7 9 14 19 22 24 27 28 27 25 21 18 16 14 12 10 10 10 11
34 34 35 37 38 38 33 30 30 31 32 33 34 33 34 33 33 32 30 30 29 29 29 28 28 27 27 27 26 26 25 24 25 25 23 23 24 23 19 16 14 13 13 14 13 12 12 12 13 13 13 14 15 15 15 13 11 13 15 15 18 20 18 13 8 5 4 6 13 20 22 25 28 28 28 26 22 20 19 17 14 12 11 11 12
32 31 30 33 36 33 29 27 28 31 32 32 33 33 34 33 32 31 30 29 29 29 28 28 27 27 27 27 27 27 27 26 26 25 23 24 23 20 18 16 14 13 14 14 13 12 11 12 13 13 13 13 13 12 12 13 12 12 13 13 14 15 14 12 7 6 7 9 14 20 23 25 27 27 27 25 21 20 20 18 16 14 13 13 14
28 29 28 28 26 24 27 27 27 30 32 32 32 33 33 33 32 31 30 30 30 29 28 28 27 27 27 27 27 27 27 27 26 24 23 22 20 19 18 16 15 15 14 13 12 11 12 11 11 11 12 12 12 12 12 11 11 10 10 10 10 10 9 9 7 7 8 11 15 21 24 25 25 26 27 25 22 21 20 17 16 15 15 15 15
28 26 27 27 24 23 25 26 29 31 32 31 32 33 33 32 32 31 30 30 29 29 28 28 27 27 27 27 27 28 28 27 24 23 22 20 18 18 17 15 15 15 14 13 11 11 10 10 9 9 10 10 10 10 9 7 6 6 5 6 8 8 7 9 9 8 9 15 18 20 22 24 24 25 28 26 24 22 20 17 16 16 16 16 16
22 18 19 21 23 25 26 27 31 32 30 31 32 32 32 32 31 31 31 29 29 28 28 28 27 27 27 27 27 28 27 25 24 23 21 18 16 16 16 15 15 15 13 11 10 9 8 8 8 8 7 6 6 6 5 5 4 5 5 6 7 7 6 8 10 10 12 18 22 20 21 23 23 24 26 26 25 24 22 19 17 17 17 17 17
26 25 24 21 20 25 30 31 31 30 30 30 31 32 32 31 30 30 30 29 29 28 28 28 28 27 28 28 27 26 26 25 23 21 19 17 16 17 17 17 15 13 10 8 7 8 7 6 5 5 5 4 3 3 3 4 4 3 3 5 7 7 7 8 10 12 15 20 21 20 21 22 21 22 25 25 24 23 23 21 18 18 18 18 18
36 36 35 33 29 27 30 31 28 28 29 29 30 31 31 30 30 29 29 29 29 28 28 28 28 28 29 28 27 26 26 25 23 20 18 18 19 18 18 16 14 10 8 7 7 7 5 4 4 4 3 2 2 2 3 4 5 5 6 7 9 8 8 8 8 11 18 21 18 17 19 20 19 19 21 23 21 21 23 23 20 20 19 19 19
42 39 36 36 33 26 24 26 26 27 28 28 29 31 30 30 30 29 29 29 29 28 28 27 28 28 28 27 27 27 26 25 23 21 20 20 20 19 18 16 13 11 8 7 6 5 4 4 4 4 4 3 3 2 3 4 5 5 6 6 6 6 6 6 5 7 13 16 15 15 16 17 17 17 20 23 23 23 24 24 21 20 19 19 20
41 37 32 32 31 25 22 23 25 26 27 28 29 30 31 31 30 29 29 29 29 28 27 27 28 28 27 26 26 26 24 23 23 21 20 21 20 19 18 15 13 11 10 8 7 4 4 5 5 5 5 5 3 3 5 6 5 5 5 5 5 5 6 6 5 5 8 12 14 15 14 15 18 20 22 24 25 24 24 24 22 19 17 16 16
36 33 31 31 30 28 26 24 24 25 26 27 28 29 31 31 31 30 30 29 29 27 25 26 26 25 26 26 26 24 22 21 21 19 19 20 19 18 16 13 12 12 10 9 8 6 6 7 7 6 6 6 6 6 8 8 6 5 5 4 4 4 5 6 6 6 7 9 11 13 14 16 19 21 23 24 25 24 25 26 23 20 19 15 10
33 29 30 32 31 30 29 26 24 25 26 27 28 29 30 31 31 31 30 29 27 26 25 25 23 24 26 26 25 23 21 20 19 18 18 18 16 15 14 13 12 12 10 9 9 8 8 9 9 8 8 8 9 10 10 9 6 5 4 3 3 4 4 5 6 6 8 9 11 12 13 17 21 21 22 24 25 25 25 24 22 21 20 16 11
30 28 32 34 30 28 28 27 25 25 26 26 27 28 29 30 31 31 31 28 26 25 25 24 24 26 27 25 23 21 20 18 17 17 17 17 16 15 15 14 12 11 10 10 10 10 11 11 11 10 10 10 11 12 11 10 8 6 5 4 4 5 4 4 4 4 4 5 8 9 10 14 18 20 19 21 24 24 22 20 20 20 17 14 13
29 29 33 34 28 24 24 25 25 25 25 26 27 28 29 29 30 31 31 29 27 26 26 26 26 27 26 24 23 21 19 17 16 16 16 15 15 15 15 14 12 11 10 11 11 12 12 12 12 13 13 12 12 11 11 10 9 8 6 6 5 4 4 3 3 2 2 1 3 6 7 7 10 14 14 16 20 22 21 20 19 17 15 14 14
29 30 32 31 28 26 24 24 25 24 24 26 28 28 28 29 30 30 30 30 28 26 25 26 26 25 25 24 23 21 20 18 15 15 15 14 14 14 14 15 14 12 12 12 12 12 12 12 13 15 15 13 12 10 10 11 10 9 8 6 5 4 3 3 3 3 3 3 3 5 5 4 2 6 9 11 15 19 20 19 18 17 17 17 15
28 29 30 29 30 29 26 24 25 25 25 27 28 28 28 29 30 30 29 29 28 25 25 25 24 24 25 25 24 23 21 18 16 15 14 14 15 15 16 17 16 14 13 13 12 11 11 12 14 15 15 14 12 10 10 10 10 10 9 8 7 6 7 7 7 7 7 7 8 9 9 8 7 5 5 8 13 16 17 17 17 19 20 18 14
28 29 30 32 33 32 29 26 25 27 27 28 28 29 28 29 31 30 28 28 27 25 25 25 23 24 26 25 25 24 21 18 17 15 15 17 18 18 18 19 18 15 14 14 13 11 10 12 14 15 14 13 12 11 11 10 11 11 11 10 10 9 10 10 10 10 10 9 9 9 8 8 7 7 7 7 10 13 15 19 20 21 21 17 12
29 31 33 34 33 32 31 28 27 29 29 29 29 28 28 30 32 30 30 30 26 24 25 24 22 23 25 24 23 22 21 19 17 16 17 20 21 21 21 20 19 17 17 16 14 12 11 12 13 13 13 13 13 12 12 12 12 12 12 12 11 11 12 11 10 10 9 9 8 7 6 5 4 4 4 5 8 10 11 16 22 22 21 19 15
32 34 34 32 31 31 31 29 29 30 30 28 28 29 28 30 31 31 32 29 24 24 25 22 21 23 23 21 21 21 21 19 17 16 20 23 23 23 22 22 21 20 20 19 17 14 13 13 12 11 12 14 14 13 13 13 13 12 12 13 13 12 12 11 10 10 10 9 8 7 7 6 5 5 6 7 10 10 9 13 20 20 19 21 20
33 34 31 29 29 31 31 29 29 30 29 28 28 29 29 30 30 31 29 24 22 23 23 21 22 22 21 21 21 21 20 19 17 17 22 25 25 24 23 23 23 24 23 22 20 17 15 14 13 12 13 14 15 15 14 14 13 13 13 13 12 12 14 13 11 11 11 12 11 10 10 10 8 9 10 10 11 10 8 11 16 16 17 20 18
30 29 28 27 28 29 29 28 28 28 28 28 28 29 30 30 30 30 26 21 22 23 22 21 22 22 21 21 21 20 19 18 16 18 24 26 25 24 24 23 24 25 25 23 20 18 17 17 15 15 14 14 15 16 15 15 14 13 13 12 10 12 15 15 13 13 13 14 14 13 13 13 13 13 14 13 13 12 12 11 11 12 14 15 15
28 27 26 26 26 26 26 26 26 26 27 27 28 29 29 29 29 29 25 23 24 24 23 22 23 23 22 22 22 20 18 15 15 20 26 26 23 23 23 24 25 26 25 23 20 18 17 16 17 17 16 15 16 17 17 16 14 12 12 12 10 13 16 16 16 15 15 15 15 15 15 16 16 16 16 16 16 16 15 14 13 11 11 10 11
27 25 24 24 25 24 23 24 26 26 25 26 28 28 28 28 28 27 26 24 24 24 24 24 25 25 24 22 21 20 17 15 17 23 26 24 22 22 23 25 26 25 24 22 20 18 16 16 17 19 18 17 18 19 19 18 14 12 13 14 14 16 18 18 17 17 17 17 16 16 16 17 17 18 18 18 18 17 17 17 16 16 16 14 14
23 22 22 22 23 22 22 22 23 22 21 23 26 27 27 27 26 26 26 25 24 24 24 25 26 25 22 21 21 20 17 16 19 24 24 21 19 21 23 25 25 23 20 19 17 17 16 16 18 19 18 18 18 18 20 20 16 14 17 17 17 20 21 20 19 18 17 17 17 17 17 17 18 19 18 18 18 17 17 17 17 17 18 18 17
21 21 20 20 20 20 20 19 17 14 16 22 25 26 27 27 26 25 25 25 25 25 24 24 25 25 24 23 22 21 19 19 21 24 23 20 18 20 22 24 24 22 19 17 16 16 16 17 18 18 17 16 17 18 19 18 16 17 20 20 21 23 22 20 20 19 18 18 17 17 17 17 17 18 17 17 17 17 17 17 17 17 18 19 19
20 21 21 21 19 18 16 16 14 13 17 22 25 26 27 27 26 24 24 24 24 24 24 24 25 26 24 23 22 22 21 21 21 24 24 21 19 19 20 22 22 20 18 17 16 17 17 17 17 17 16 17 18 18 18 17 18 21 23 23 23 23 21 20 20 19 19 19 18 17 17 16 16 17 16 15 15 15 15 16 18 18 19 20 19
19 19 20 20 19 18 18 19 18 18 20 21 22 23 23 25 25 24 23 23 23 23 24 24 24 24 22 21 22 23 24 22 21 24 27 25 21 19 19 20 21 20 18 18 18 19 19 19 18 17 18 18 18 18 20 22 24 25 24 23 22 21 19 19 18 18 19 19 18 17 16 15 16 16 15 14 12 11 12 13 16 19 19 18 19
22 21 20 21 22 24 26 27 26 24 22 20 20 19 18 20 21 20 20 21 21 21 22 22 23 23 23 23 23 23 24 24 24 26 29 28 24 20 18 17 19 20 19 19 20 22 22 20 20 20 21 21 21 22 24 25 26 26 24 20 19 19 17 17 17 18 18 17 17 17 16 16 16 15 14 13 11 10 10 10 13 17 17 16 17
26 25 24 25 26 28 30 31 30 28 25 22 20 18 16 16 17 16 16 16 17 19 19 20 22 23 24 25 24 24 24 24 23 23 26 28 26 22 19 17 16 18 20 21 22 24 24 23 23 24 24 24 25 26 26 25 24 21 18 16 16 16 16 17 19 20 19 17 17 18 18 17 16 15 14 13 12 10 9 9 12 15 16 16 16
30 29 29 29 28 29 30 29 29 29 27 25 23 20 16 13 12 11 12 12 14 15 16 16 18 20 22 23 21 17 14 13 12 15 20 23 22 21 19 16 14 16 19 22 24 26 26 25 25 25 25 25 25 25 25 24 21 17 13 11 12 13 15 17 20 22 20 19 19 20 20 19 18 17 16 15 13 12 11 11 12 14 15 15 16
33 30 30 29 28 29 29 28 28 29 28 27 26 24 21 17 12 9 8 9 11 12 12 12 14 16 17 17 13 9 6 4 4 8 15 19 19 18 17 15 14 15 18 22 24 26 27 26 25 24 23 23 23 24 24 23 19 16 12 10 10 12 14 16 20 22 22 21 21 21 21 20 20 19 17 16 15 13 12 11 11 12 13 14 16
33 30 29 28 27 28 29 28 28 28 27 26 26 25 24 22 18 14 10 9 10 11 11 12 13 13 12 11 11 10 9 5 4 7 13 18 18 16 15 14 13 14 18 21 24 25 25 25 23 22 21 21 21 23 23 22 19 16 13 11 12 14 15 18 21 23 24 23 23 22 21 20 20 18 16 15 13 12 11 11 11 12 14 15 16
30 29 29 29 28 28 28 27 26 25 24 23 23 23 23 23 21 19 16 13 13 13 14 14 13 12 11 11 11 10 8 7 7 9 14 17 17 15 14 13 13 16 19 21 22 21 20 20 20 20 21 22 23 23 23 21 19 15 13 14 17 19 20 22 23 24 24 23 23 22 21 20 18 15 14 13 12 12 12 11 12 14 16 17 16
30 28 28 29 28 27 25 24 23 22 22 22 22 23 23 23 22 21 20 18 17 15 15 15 13 12 11 11 10 10 10 8 8 11 15 16 16 15 15 15 16 17 18 19 19 19 19 18 19 20 21 22 23 22 21 20 19 16 16 19 22 23 23 23 23 22 22 22 22 22 20 17 14 13 13 13 12 12 12 12 13 15 16 16 16
29 28 28 28 27 25 24 23 23 23 22 22 23 24 24 23 21 21 21 21 21 20 18 17 15 13 12 11 11 11 10 9 9 11 13 14 15 15 15 17 18 18 17 16 16 17 19 19 19 21 21 21 21 21 20 19 18 17 19 23 23 23 22 21 20 21 22 23 22 20 16 13 12 13 14 13 11 11 11 12 13 13 14 15 14
29 28 28 28 27 26 24 23 23 23 23 22 23 23 23 23 22 22 22 23 24 23 21 20 17 15 14 13 12 11 11 11 12 12 12 13 14 14 15 18 19 18 16 14 14 16 18 19 20 21 21 21 21 20 20 19 19 20 22 23 22 21 21 21 22 23 23 22 19 16 14 15 15 14 13 11 10 10 11 12 12 13 14 14 13
28 27 28 28 28 27 25 24 23 23 23 23 23 23 23 22 23 23 23 23 24 23 21 20 19 18 16 15 13 13 13 14 14 14 14 14 13 12 12 16 18 17 16 14 14 16 18 19 20 21 21 21 22 21 20 20 22 23 23 22 21 21 22 23 23 23 21 18 17 16 17 16 15 12 10 9 10 11 12 13 14 14 14 13 12
28 27 27 27 26 26 25 24 23 23 22 22 22 22 22 22 22 23 23 23 23 22 20 19 19 20 19 17 16 16 16 15 15 15 14 13 12 10 11 14 15 15 15 15 15 16 18 19 20 21 21 21 22 22 22 24 25 25 24 22 22 22 23 23 21 19 18 18 18 17 15 13 10 8 8 9 11 12 12 12 13 13 12 11 10
27 26 25 25 25 25 25 24 23 22 21 21 21 21 21 21 21 22 22 22 21 20 20 19 19 19 19 19 18 17 17 17 16 15 14 12 11 10 12 13 14 14 15 15 16 17 19 20 20 21 21 21 22 23 25 26 26 25 24 23 23 23 22 20 19 18 18 18 16 13 10 9 9 8 8 9 11 12 12 11 10 10 11 10 9
25 24 23 24 24 23 23 22 22 21 21 21 20 20 20 20 20 20 21 21 20 19 19 19 18 17 17 18 17 17 17 18 17 16 14 13 12 12 13 14 14 15 16 16 17 18 19 20 21 21 21 22 22 24 25 26 25 25 24 23 23 21 20 19 19 19 18 15 12 10 9 9 10 9 9 10 11 11 11 10 9 9 9 9 8
23 22 21 22 22 21 21 21 20 20 20 20 20 20 20 20 20 20 20 20 19 18 17 17 16 15 14 14 14 14 16 17 17 16 15 14 14 13 13 13 14 15 16 17 18 19 20 20 21 21 22 23 24 25 26 25 25 24 22 21 21 20 20 20 19 16 13 11 10 10 10 9 9 10 11 12 12 11 10 9 9 8 8 7 6
22 22 21 21 21 21 21 20 20 19 19 19 19 20 20 20 20 21 21 20 20 19 18 17 15 14 12 12 12 13 15 16 16 15 15 14 13 13 13 13 14 14 15 16 18 19 20 21 21 22 24 26 27 27 26 24 22 21 20 21 21 21 21 19 15 12 10 10 10 10 10 10 10 11 12 12 12 11 9 8 8 7 7 6 6
20 21 21 20 20 21 21 20 20 19 19 19 19 20 21 21 21 21 21 20 19 19 19 18 16 15 14 13 12 13 15 15 15 15 15 14 14 14 14 14 14 14 15 16 17 19 20 21 22 23 25 26 26 25 23 20 19 19 20 21 21 20 18 15 12 10 9 10 11 11 11 12 12 12 12 12 11 10 9 8 7 6 5 5 5
19 20 20 20 20 20 19 19 19 19 19 19 20 20 20 21 21 20 20 20 19 19 19 18 17 16 16 15 14 14 15 15 15 15 15 15 15 15 15 15 15 15 16 17 18 18 20 22 24 25 26 26 24 21 19 18 17 18 20 21 20 17 15 12 10 9 10 11 12 12 13 13 13 12 12 11 10 9 9 8 7 6 6 5 4
20 20 20 20 19 19 18 18 19 19 19 19 19 18 19 19 20 20 20 20 19 19 19 18 18 18 17 16 15 15 15 16 16 16 16 16 15 15 15 15 15 16 17 18 19 20 21 23 25 25 25 24 21 19 18 17 16 17 18 18 15 13 11 9 9 10 11 11 12 12 13 13 13 12 11 10 9 8 8 7 6 6 6 5 4
20 20 20 19 19 19 18 18 18 18 18 18 18 17 17 18 19 20 20 20 20 19 19 18 18 18 18 17 16 16 16 16 16 16 16 16 15 15 15 16 16 17 19 20 21 21 22 22 23 23 22 21 19 18 17 16 16 17 15 13 10 9 9 9 10 11 11 10 11 12 13 13 12 11 10 10 9 8 7 7 6 5 5 4 4
16 16 16 16 16 17 17 17 18 18 17 17 18 18 18 18 19 20 20 20 19 19 18 18 18 17 17 17 16 16 16 16 16 16 16 15 15 15 15 16 17 19 20 21 21 21 21 21 21 20 20 19 18 17 17 16 15 14 12 10 9 9 10 11 11 10 10 9 10 11 12 12 12 11 10 9 9 8 7 7 6 5 4 4 4
14 14 14 13 14 15 16 17 18 18 18 18 19 19 20 20 19 19 19 19 19 18 18 18 18 17 17 16 16 16 16 16 16 16 16 15 15 16 16 17 18 20 21 22 22 21 21 20 19 18 18 17 17 16 15 14 13 12 10 9 9 10 11 11 11 10 10 10 9 9 10 11 11 11 10 9 9 8 7 7 6 4 3 3 3
15 14 13 12 12 13 15 16 18 18 19 20 20 20 20 19 18 18 18 18 18 18 18 18 18 17 17 16 16 15 15 16 16 17 17 17 17 17 18 19 21 22 23 23 22 21 19 18 17 16 16 15 14 13 12 12 11 11 10 10 10 10 10 11 10 10 10 10 9 9 9 9 9 10 9 9 9 8 7 7 5 4 3 2 1
14 14 13 13 13 13 15 16 17 18 19 20 20 19 19 18 18 18 17 17 17 18 17 17 17 17 16 16 16 15 16 17 18 18 19 19 19 20 20 21 23 23 23 22 21 20 19 17 16 15 14 13 11 11 10 10 10 10 10 10 11 11 11 10 10 9 9 8 8 8 9 9 9 10 9 9 9 8 7 6 5 4 3 2 2
13 14 14 15 15 15 15 16 17 18 19 19 18 18 18 17 17 17 16 16 16 16 16 16 16 16 16 16 16 16 17 18 19 20 20 21 21 22 22 22 23 23 22 21 20 20 18 17 16 14 13 11 11 10 10 10 10 10 10 10 11 11 11 10 10 9 8 8 8 8 8 9 10 10 10 9 9 8 7 6 6 4 3 3 4
Wind_Direction
186 186 188 191 196 200 201 199 196 199 206 211 213 214 212 211 213 214 215 216 217 219 219 219 217 215 215 216 217 219 220 222 222 224 227 231 236 240 239 239 243 248 252 257 263 268 269 273 277 278 277 275 271 271 271 266 255 241 237 234 227 225 222 215 216 232 232 226 216 210 207 201 198 200 198 192 191 196 199 195 190 195 203 200 198
187 187 188 191 197 200 199 197 195 199 205 209 211 212 212 213 215 215 215 216 217 218 218 217 216 215 215 217 219 220 220 221 221 221 222 223 227 233 237 239 241 244 250 258 263 270 274 279 285 288 288 282 274 271 273 271 253 228 221 219 219 222 220 212 211 210 179 183 198 197 197 198 196 196 197 195 192 194 196 195 196 204 210 207 205
184 185 188 194 199 199 196 194 196 202 207 209 210 212 213 214 215 215 215 216 216 216 216 215 215 216 216 217 219 218 217 219 221 220 218 217 219 226 233 237 240 246 253 259 262 269 276 283 290 294 296 294 286 280 277 271 261 242 224 211 207 210 208 200 185 160 150 158 179 187 189 194 196 196 197 198 197 196 195 195 197 204 209 211 212
179 181 187 196 200 198 195 194 201 208 209 209 210 211 213 214 213 213 215 215 216 215 215 216 216 215 215 215 215 214 214 218 220 217 213 213 217 224 231 237 245 252 257 260 263 270 276 281 287 290 289 289 286 282 279 269 254 238 220 205 203 203 203 203 191 173 166 160 174 190 190 190 196 196 194 196 200 199 198 197 199 205 208 210 213
175 177 183 191 194 194 195 201 209 211 209 208 209 210 211 211 211 212 213 214 214 214 215 216 215 213 213 213 211 211 213 214 212 208 208 213 220 227 230 235 243 249 254 259 260 263 270 275 281 285 282 280 277 273 266 250 228 221 220 217 220 227 230 223 217 213 195 176 178 190 190 187 192 193 193 196 198 197 200 203 205 209 209 210 215
166 174 183 188 189 189 196 208 212 210 208 207 206 208 209 210 210 210 211 212 212 212 213 211 210 211 212 212 212 211 211 209 206 205 209 215 220 223 224 227 236 242 245 251 256 257 264 272 276 281 285 285 278 263 243 228 237 256 260 240 223 220 222 214 214 219 206 188 182 182 183 184 186 190 196 200 198 195 197 203 212 214 211 211 214
178 185 190 189 188 192 201 209 210 206 206 206 204 206 208 208 208 208 209 210 209 209 209 208 209 211 210 210 211 209 205 203 205 209 212 215 216 218 221 225 229 230 233 238 245 248 255 266 273 277 287 295 280 242 226 230 240 243 215 190 179 171 165 174 191 199 189 182 180 180 181 184 186 192 199 201 199 197 195 196 205 212 212 214 214
186 188 189 187 189 198 204 205 205 204 204 204 203 205 206 206 206 206 205 206 206 206 206 205 205 207 206 206 206 204 202 202 206 209 212 216 218 218 218 218 216 212 214 223 226 226 230 241 252 254 255 256 235 231 235 222 198 159 144 157 162 155 147 149 160 172 173 174 178 180 181 186 189 191 193 192 191 195 198 197 199 205 209 213 213
186 188 188 187 188 193 196 197 201 203 202 202 203 205 206 206 206 205 204 204 204 204 204 202 201 202 203 203 203 202 202 204 206 207 210 214 214 212 208 205 206 205 205 208 206 207 215 219 227 232 222 205 204 213 205 194 182 161 146 151 160 155 146 145 139 150 164 170 175 177 180 188 191 184 182 188 194 198 201 201 203 204 205 207 207
187 187 187 189 189 185 183 190 198 199 199 201 204 206 208 208 206 205 206 206 204 202 201 201 201 203 204 202 199 198 200 206 209 208 208 207 204 202 199 196 201 203 200 197 190 197 229 220 214 222 214 193 178 171 170 173 173 165 149 135 137 137 138 147 147 149 160 164 172 180 180 184 191 192 190 195 202 202 199 200 202 196 190 193 199
186 185 186 189 190 186 182 185 192 196 197 200 203 206 208 208 206 206 206 206 205 203 201 200 202 206 205 198 193 193 198 205 205 201 200 201 199 198 194 192 195 196 195 194 189 196 219 213 202 204 200 180 162 160 165 169 170 164 154 141 129 124 131 142 150 164 175 174 178 189 192 189 191 196 198 198 200 199 196 196 194 183 177 176 178
183 180 185 191 192 189 185 183 186 192 196 198 202 206 207 206 205 205 204 204 205 204 201 200 200 202 199 191 186 187 190 191 192 192 195 196 198 200 196 190 187 188 191 193 188 189 196 193 187 184 180 171 162 160 161 164 168 164 156 151 135 123 126 138 148 165 179 186 190 194 200 198 192 191 194 194 193 192 191 192 189 182 179 174 165
180 177 185 191 191 188 185 183 183 188 194 197 200 202 204 204 203 202 202 203 203 203 201 196 191 190 189 183 179 181 181 181 186 192 194 195 198 199 193 187 185 187 193 191 185 185 185 179 172 164 164 164 163 164 166 166 166 160 148 143 139 133 126 124 136 153 168 191 201 198 199 200 196 195 196 194 192 189 184 183 184 183 180 170 161
180 180 185 189 186 181 183 183 181 185 191 194 196 199 201 202 202 202 203 202 201 202 200 193 186 184 183 180 177 179 180 181 187 193 194 194 197 195 189 185 185 187 192 190 186 183 180 176 171 164 162 166 167 169 172 168 161 155 147 137 133 136 138 131 133 142 148 187 208 202 197 200 208 212 211 206 201 194 184 178 177 174 165 153 150
183 184 185 186 183 182 185 183 180 182 188 191 194 198 200 200 200 201 202 201 201 200 194 190 188 185 181 178 178 178 180 181 185 192 194 193 195 195 188 181 178 179 186 189 186 179 176 178 179 173 169 167 168 172 175 170 162 156 148 138 129 121 119 120 112 109 120 129 132 137 133 129 185 216 217 212 203 195 187 179 171 161 146 135 136
184 185 186 185 186 187 186 183 180 181 185 189 191 195 198 197 196 196 197 199 203 200 190 188 190 185 179 177 178 177 176 179 184 189 193 194 194 193 186 175 170 175 182 185 181 175 176 180 180 177 172 168 168 175 181 176 167 159 148 134 127 119 112 112 113 115 120 123 120 115 108 104 104 115 150 176 177 175 171 161 157 153 140 125 117
184 186 186 187 189 188 184 182 181 179 182 187 190 193 195 194 193 192 192 195 197 191 187 188 188 184 179 176 175 175 175 178 184 188 193 195 193 189 180 170 167 175 182 181 176 169 167 172 176 178 177 173 171 178 186 184 171 161 150 138 130 123 118 119 123 125 127 126 124 119 114 113 111 108 117 140 158 168 163 153 155 156 143 125 111
185 187 189 190 189 185 182 184 182 179 182 187 189 191 191 193 192 190 192 194 186 175 179 182 179 179 178 175 175 179 178 179 185 191 195 196 193 185 174 167 169 178 183 181 176 164 156 160 171 180 181 178 177 181 189 187 174 163 157 149 141 134 135 140 140 136 135 134 133 133 131 129 129 126 129 143 162 182 183 168 165 160 144 131 124
187 189 191 190 186 182 181 184 184 181 181 184 188 189 191 193 192 192 197 194 176 167 175 176 170 173 175 174 180 183 181 180 186 192 194 196 194 183 172 169 174 181 185 184 178 170 164 163 167 175 176 176 178 183 189 188 178 172 169 162 154 150 153 158 157 151 147 143 140 140 138 135 138 147 158 169 174 187 203 186 173 163 145 137 134
188 190 190 186 184 183 182 185 187 183 180 181 186 189 192 193 191 194 198 186 162 165 176 172 167 172 174 176 182 185 183 183 185 191 194 196 194 184 174 175 180 183 186 185 180 176 176 175 175 175 172 172 175 181 189 189 183 180 178 172 165 162 161 161 160 156 149 139 134 132 129 127 128 134 141 149 154 156 163 172 175 171 155 145 139
186 187 186 183 183 183 182 185 188 183 178 181 186 189 192 192 190 193 194 174 157 165 174 169 167 171 174 179 181 182 184 185 187 192 193 194 193 185 179 181 185 185 184 183 181 179 180 183 186 184 180 179 180 184 189 189 185 184 186 182 173 163 159 158 157 153 144 135 132 130 127 126 124 123 123 123 124 123 127 144 165 172 162 152 140
182 181 180 182 182 180 180 184 185 179 176 182 187 187 188 190 188 189 186 171 161 164 167 167 167 168 172 178 179 179 181 186 194 194 191 190 191 187 184 185 187 186 182 178 179 179 180 185 188 188 189 191 188 188 189 186 183 186 190 185 171 157 155 154 153 151 145 140 137 133 130 129 125 122 118 116 117 118 121 128 137 139 137 138 135
176 175 176 181 183 179 179 183 182 176 177 185 187 181 180 183 183 181 177 170 163 161 162 165 165 165 167 173 176 177 179 187 196 192 187 187 188 186 187 186 187 189 185 179 180 182 183 186 187 187 191 194 193 194 193 190 189 191 189 181 166 155 153 152 151 151 149 146 143 138 136 133 129 126 123 120 121 123 122 123 124 122 118 115 114
168 168 172 179 181 178 178 180 178 172 174 183 184 175 171 175 176 175 173 169 164 161 162 164 162 159 161 167 175 179 181 189 193 186 182 185 185 186 189 188 189 193 193 187 187 188 187 187 187 187 190 195 199 201 199 198 201 194 184 175 162 155 153 151 151 153 151 149 147 143 141 138 133 130 127 123 123 124 124 124 122 121 119 115 112
161 161 168 177 179 177 174 167 163 167 179 184 178 168 165 168 170 170 171 169 165 162 161 161 160 160 163 169 176 180 183 188 188 182 179 182 181 183 187 188 191 197 199 194 195 197 195 193 191 189 190 193 195 193 194 198 197 184 176 169 161 158 156 152 153 155 154 152 150 147 144 140 135 132 128 125 125 126 128 127 125 125 124 121 118
154 154 163 174 178 174 161 141 140 170 189 186 175 166 166 168 167 169 171 170 167 165 163 164 166 167 168 170 175 178 180 184 184 181 181 182 180 179 183 185 189 196 201 202 201 199 197 195 193 191 187 184 183 183 183 183 177 171 169 166 164 163 161 158 159 159 157 156 153 149 145 141 140 138 133 129 128 129 132 133 132 133 133 130 125
141 138 150 163 165 158 144 134 143 163 172 168 161 159 164 167 167 169 173 172 170 168 169 171 172 169 165 167 174 178 179 181 183 184 185 185 184 182 182 184 185 189 197 203 201 197 195 192 187 182 176 174 177 178 173 168 165 164 165 168 170 171 169 167 168 166 164 161 158 154 152 149 149 148 144 138 135 137 144 146 142 139 140 138 130
129 126 134 142 140 137 137 142 149 151 146 143 142 143 151 158 161 165 171 174 175 175 175 175 175 173 170 171 175 178 179 182 186 188 189 190 189 188 186 186 187 189 195 200 197 191 187 181 173 170 171 171 172 168 163 160 161 163 166 172 178 179 180 184 184 180 175 171 166 163 162 160 158 157 153 147 144 149 162 165 155 149 149 146 135
118 119 122 125 125 128 134 140 144 139 132 128 125 124 135 150 156 160 167 174 178 181 182 184 183 182 181 180 180 179 180 184 188 191 193 194 195 195 193 189 191 194 197 200 195 184 176 171 168 169 171 170 166 160 157 157 158 161 166 172 177 182 190 197 196 189 184 178 172 168 165 163 160 157 150 142 138 144 153 156 155 155 155 150 139
111 116 123 126 128 130 130 130 131 129 126 124 118 111 113 126 142 155 165 174 180 183 187 190 190 188 187 188 188 184 182 186 191 196 198 197 199 202 201 198 200 199 196 195 188 177 170 167 168 171 170 166 161 157 156 158 158 160 163 168 178 189 195 195 192 186 179 173 170 167 163 158 153 147 142 136 132 135 138 138 144 151 153 149 140
120 126 131 134 136 134 130 126 124 122 122 123 122 116 107 101 103 115 137 161 176 183 187 189 189 189 190 192 188 170 151 158 193 207 205 199 196 200 203 203 205 203 199 192 181 173 171 170 171 173 171 166 161 159 159 162 164 166 167 167 178 191 192 189 186 179 171 166 165 163 158 152 146 141 138 134 134 138 141 142 144 149 153 151 143
128 130 131 132 133 129 125 123 122 121 120 121 121 120 114 104 94 89 98 123 142 153 158 162 167 173 179 181 171 151 140 145 160 185 194 193 192 194 197 199 198 195 195 191 181 174 175 174 172 171 169 166 165 165 166 169 172 173 171 170 172 178 179 177 176 170 163 160 160 157 152 147 142 137 136 139 141 142 142 142 144 149 153 150 143
123 125 126 125 124 121 121 121 121 122 122 121 120 120 118 113 105 98 98 105 115 124 130 136 146 156 162 166 166 158 155 161 158 161 175 184 187 187 184 185 186 184 185 185 179 174 174 174 171 172 172 173 175 175 176 179 180 177 175 169 161 156 153 154 155 154 154 155 154 151 146 142 138 138 142 148 150 146 140 138 143 149 151 148 142
119 121 122 121 118 117 119 120 120 119 120 119 119 117 116 117 115 110 104 102 100 102 107 115 129 145 156 164 173 175 177 175 162 159 169 178 184 184 177 171 173 179 185 187 181 177 176 176 175 177 178 178 179 179 179 181 180 177 170 159 148 142 141 143 144 145 148 149 147 143 140 139 143 152 156 153 150 145 140 140 146 151 153 150 145
116 116 117 117 117 116 119 121 121 120 119 117 117 117 118 121 122 118 114 109 102 95 94 99 110 125 138 146 156 164 169 168 156 157 168 176 179 179 172 166 165 171 181 187 186 184 184 181 179 179 180 180 179 178 176 175 174 170 160 150 142 140 142 143 143 144 146 146 143 142 144 151 162 167 163 156 153 150 145 146 153 157 158 155 149
108 109 111 113 115 117 119 121 122 121 120 119 120 121 123 124 123 119 115 113 108 103 99 101 105 113 122 129 137 145 150 152 151 154 161 167 171 174 171 166 166 170 177 185 190 190 188 185 181 179 179 178 176 174 173 169 165 161 155 148 144 145 145 144 145 146 147 147 149 155 163 165 165 163 157 152 151 149 147 149 152 154 155 155 150
105 106 108 112 115 118 118 119 121 122 123 124 124 124 122 122 122 120 117 114 113 110 109 110 114 116 116 119 128 137 139 139 141 145 148 153 161 172 177 173 172 174 177 182 186 184 181 180 179 177 176 175 174 172 170 166 161 158 155 152 151 150 148 147 148 149 150 154 161 165 164 160 159 161 161 154 147 145 146 148 145 142 145 149 149
104 108 112 115 118 119 119 120 122 125 126 126 127 127 125 123 124 123 121 120 120 119 118 119 122 122 122 125 132 138 138 138 139 141 145 153 162 174 180 177 175 175 175 175 179 178 174 173 174 174 174 174 173 171 167 162 160 159 157 153 151 149 148 150 152 154 159 162 161 159 155 152 156 167 169 159 150 148 148 147 144 140 140 142 143
100 107 114 119 122 123 124 126 127 128 129 129 129 130 129 127 125 125 124 124 124 123 123 123 124 126 130 135 141 143 143 143 144 146 149 158 166 171 172 170 169 169 169 169 172 173 170 167 168 169 168 168 168 166 163 160 158 157 154 150 149 150 153 155 157 158 160 158 153 149 149 155 161 164 163 157 154 150 147 145 145 144 142 137 133
98 103 110 117 119 121 124 127 127 128 130 131 131 131 130 128 127 126 126 126 125 125 126 126 127 132 139 143 148 153 150 146 146 149 152 155 158 162 165 165 165 165 165 167 169 170 168 166 166 165 164 163 162 161 160 157 154 152 151 151 153 156 158 159 158 155 153 149 145 147 155 162 163 161 157 154 154 151 147 143 143 143 141 135 132
100 103 107 112 116 119 121 121 122 126 129 130 131 131 131 131 131 130 129 128 126 125 126 128 131 139 147 150 155 160 153 145 143 146 149 150 153 156 160 163 164 164 164 165 167 168 167 166 166 165 163 162 161 159 156 153 151 151 154 157 159 159 159 158 155 151 147 146 150 157 161 165 168 166 160 154 150 148 146 145 144 146 146 144 147
102 104 106 109 114 116 116 116 120 125 128 129 130 132 133 135 135 134 133 132 131 130 128 128 131 138 144 147 153 155 148 142 142 143 144 146 149 151 154 157 160 162 164 166 167 167 165 164 163 164 162 160 159 156 153 152 153 157 160 161 160 158 157 155 152 149 149 154 160 164 164 165 166 164 159 154 150 146 143 142 143 145 147 152 159
103 105 106 108 110 112 114 118 122 125 127 129 131 134 136 137 137 137 135 134 134 133 130 128 130 134 137 143 149 147 141 139 141 141 141 143 146 147 149 153 155 159 162 164 165 165 163 160 160 161 161 159 158 157 156 157 160 162 162 161 160 158 157 156 155 157 162 166 167 168 166 165 165 162 158 156 154 152 149 151 153 150 143 143 145
105 107 108 109 110 112 116 122 124 125 128 131 131 134 137 137 137 138 138 136 135 134 131 132 134 135 136 140 143 140 137 138 140 140 141 142 145 146 149 152 154 156 158 159 160 162 161 159 157 158 158 159 160 161 161 163 165 165 164 163 162 162 164 169 171 173 177 177 174 171 168 167 166 163 161 161 163 162 159 157 156 149 140 135 127
105 106 107 108 109 111 116 122 125 127 129 130 129 131 134 137 138 139 138 137 137 136 135 137 139 139 140 142 143 140 140 141 141 142 142 143 145 147 150 152 153 154 154 155 157 159 158 157 157 157 158 159 162 163 164 165 168 170 171 170 169 171 177 183 183 182 184 186 180 173 170 168 165 164 165 167 172 173 167 160 155 148 138 125 105
104 107 108 110 112 115 117 121 126 129 130 131 131 133 135 137 140 141 140 140 140 140 140 142 144 145 146 147 146 146 146 146 144 144 145 145 146 148 151 153 153 154 154 155 157 158 158 157 157 157 158 160 162 163 164 166 169 171 173 176 180 181 181 181 183 184 187 189 183 176 172 169 168 170 173 174 176 177 171 164 162 155 136 109 82
106 109 112 115 118 122 125 126 127 129 130 132 134 136 138 139 140 141 142 142 143 144 146 148 150 151 152 152 152 152 152 150 149 147 147 147 148 151 154 156 156 156 156 157 158 158 157 157 158 159 160 161 163 163 164 167 170 171 174 180 184 182 178 179 183 184 184 185 183 179 177 174 172 172 174 173 175 177 172 163 158 145 122 101 77
110 111 117 122 125 128 132 134 132 130 131 133 134 134 136 139 140 140 142 144 146 148 150 151 152 154 155 154 156 157 155 154 152 151 150 151 152 153 155 157 156 156 155 154 154 155 155 157 160 161 161 162 164 164 165 168 169 169 169 172 178 181 180 178 178 177 177 179 180 179 180 177 171 168 169 171 174 176 172 164 157 140 120 113 81
113 115 120 126 130 134 137 138 137 134 132 132 133 134 135 137 140 143 146 148 150 153 154 154 154 156 156 156 157 158 159 158 157 155 155 155 154 153 154 154 153 153 153 152 154 156 158 160 161 161 159 160 161 162 164 165 166 166 167 170 175 178 177 174 173 172 173 175 176 176 178 177 171 169 170 172 172 173 170 165 163 157 148 148 94
117 116 117 120 128 136 140 139 140 139 137 135 136 138 139 141 144 148 151 154 155 157 158 159 159 160 162 162 162 162 163 162 160 159 158 157 155 155 155 154 154 156 157 157 159 161 161 161 161 159 158 159 161 163 166 170 172 174 176 175 174 173 171 170 171 172 172 174 176 177 180 180 176 173 173 173 174 176 176 175 181 189 189 197 229
130 124 122 122 123 127 133 137 140 141 141 141 142 145 147 148 150 153 155 157 158 160 162 165 166 168 169 169 168 166 164 163 162 161 160 159 158 159 159 159 160 162 163 163 163 164 163 163 163 162 162 164 166 168 173 177 179 181 181 176 173 173 175 176 177 177 176 177 179 179 182 184 181 177 176 177 181 185 188 189 196 208 214 212 221